Wadena, MN

7:10 AM CDT on July 26, 2017 (GMT -0500)
Wadena Municipal

Weather History for KADC - June, 2013

Change the Weather History Date:

Sunday, June 16, 2013

  Actual Average Record
Temperature  
Mean Temperature 66 °F -  
Max Temperature 82 °F 70 °F 89 °F (1940)
Min Temperature 51 °F 51 °F 41 °F (2015)
Cooling Degree Days 2    
Growing Degree Days 16 (Base 50)    
Moisture  
Dew Point 46 °F    
Average Humidity 49    
Maximum Humidity 82    
Minimum Humidity 26    
Precipitation  
Precipitation 0.00 in - - ()
Sea Level Pressure  
Sea Level Pressure 29.87 in    
Wind  
Wind Speed 8 mph (West)    
Max Wind Speed 18 mph    
Max Gust Speed 26 mph    
Visibility 10 miles    
Events      
Averages and records for this station are not official NWS values.
T = Trace of Precipitation, MM = Missing Value Source: NWS Daily Summary

Daily Weather History Graph

Daily Weather History Graph

Search for Another Location

Airport or City:

Trip Planner

Search our weather history database for the weather conditions in past years. The results will help you decide how hot, cold, wet, or windy it might be!

Date:

Astronomy

Jun. 16, 2013 Rise Set
Actual Time 5:27 AM CDT 9:15 PM CDT
Civil Twilight 4:48 AM CDT 9:54 PM CDT
Nautical Twilight 3:55 AM CDT 10:48 PM CDT
Astronomical Twilight 2:39 AM CDT 12:04 AM CDT
Moon 1:30 PM CDT (6/16) 12:57 AM CDT (6/16)
Length of Visible Light 17h 06m
Length of Day
15h 48m
Waxing Crescent, 50% of the Moon is Illuminated
Jun 16
Waxing Crescent
Jun 16
First Quarter
Jun 23
Full
Jun 29
Last Quarter
Jul 8
New

Hourly Weather History & Observations

Time (CDT) Temp. Dew Point Humidity Pressure Visibility Wind Dir Wind Speed Gust Speed Precip Events Conditions
12:15 AM 57.2 °F 44.6 °F 63% 29.88 in 10.0 mi WSW 4.6 mph - N/A   Clear
12:35 AM 55.4 °F 46.4 °F 72% 29.88 in 10.0 mi WSW 4.6 mph - N/A   Clear
12:53 AM 57.2 °F 46.4 °F 67% 29.88 in 10.0 mi WSW 5.8 mph - N/A   Clear
1:15 AM 57.2 °F 44.6 °F 63% 29.88 in 10.0 mi WSW 5.8 mph - N/A   Clear
1:34 AM 57.2 °F 44.6 °F 63% 29.88 in 10.0 mi WSW 5.8 mph - N/A   Clear
1:53 AM 57.2 °F 44.6 °F 63% 29.88 in 10.0 mi WSW 5.8 mph - N/A   Clear
2:15 AM 57.2 °F 44.6 °F 63% 29.88 in 10.0 mi WSW 5.8 mph - N/A   Clear
2:35 AM 55.4 °F 44.6 °F 67% 29.88 in 10.0 mi SW 4.6 mph - N/A   Clear
2:53 AM 55.4 °F 44.6 °F 67% 29.88 in 10.0 mi WSW 6.9 mph - N/A   Clear
3:15 AM 55.4 °F 44.6 °F 67% 29.88 in 10.0 mi WSW 5.8 mph - N/A   Clear
3:35 AM 55.4 °F 44.6 °F 67% 29.88 in 10.0 mi WSW 5.8 mph - N/A   Clear
3:53 AM 53.6 °F 44.6 °F 72% 29.88 in 10.0 mi WSW 5.8 mph - N/A   Clear
4:14 AM 53.6 °F 44.6 °F 72% 29.88 in 10.0 mi WSW 5.8 mph - N/A   Clear
4:35 AM 53.6 °F 46.4 °F 77% 29.88 in 10.0 mi West 6.9 mph - N/A   Clear
4:53 AM 53.6 °F 46.4 °F 77% 29.88 in 10.0 mi WSW 3.5 mph - N/A   Clear
5:14 AM 51.8 °F 46.4 °F 82% 29.89 in 10.0 mi WSW 4.6 mph - N/A   Clear
5:35 AM 53.6 °F 46.4 °F 77% 29.89 in 10.0 mi WSW 5.8 mph - N/A   Clear
5:53 AM 55.4 °F 46.4 °F 72% 29.89 in 10.0 mi WSW 5.8 mph - N/A   Clear
6:14 AM 55.4 °F 46.4 °F 72% 29.90 in 10.0 mi WSW 5.8 mph - N/A   Clear
6:35 AM 55.4 °F 46.4 °F 72% 29.90 in 10.0 mi WSW 5.8 mph - N/A   Clear
6:53 AM 57.2 °F 48.2 °F 72% 29.91 in 10.0 mi WSW 5.8 mph - N/A   Clear
7:15 AM 59.0 °F 48.2 °F 67% 29.91 in 10.0 mi WSW 5.8 mph - N/A   Clear
7:35 AM 60.8 °F 50.0 °F 68% 29.91 in 10.0 mi WSW 6.9 mph - N/A   Clear
7:53 AM 62.6 °F 51.8 °F 68% 29.91 in 10.0 mi West 6.9 mph - N/A   Clear
8:15 AM 64.4 °F 50.0 °F 59% 29.91 in 10.0 mi West 9.2 mph - N/A   Clear
8:35 AM 64.4 °F 50.0 °F 59% 29.91 in 10.0 mi West 9.2 mph - N/A   Clear
8:52 AM 66.2 °F 50.0 °F 56% 29.91 in 10.0 mi WSW 9.2 mph - N/A   Clear
9:15 AM 69.8 °F 48.2 °F 46% 29.91 in 10.0 mi West 11.5 mph 18.4 mph N/A   Clear
9:35 AM 69.8 °F 48.2 °F 46% 29.91 in 10.0 mi West 10.4 mph - N/A   Clear
9:53 AM 71.6 °F 48.2 °F 43% 29.90 in 10.0 mi WSW 12.7 mph - N/A   Clear
10:15 AM 71.6 °F 48.2 °F 43% 29.90 in 10.0 mi West 10.4 mph - N/A   Clear
10:34 AM 73.4 °F 48.2 °F 41% 29.90 in 10.0 mi West 11.5 mph 17.3 mph N/A   Clear
10:53 AM 73.4 °F 48.2 °F 41% 29.90 in 10.0 mi WSW 15.0 mph - N/A   Clear
11:15 AM 75.2 °F 48.2 °F 38% 29.89 in 10.0 mi West 11.5 mph 17.3 mph N/A   Clear
11:34 AM 75.2 °F 48.2 °F 38% 29.89 in 10.0 mi West 15.0 mph 18.4 mph N/A   Clear
11:53 AM 75.2 °F 46.4 °F 36% 29.89 in 10.0 mi West 12.7 mph 19.6 mph N/A   Clear
12:14 PM 77.0 °F 46.4 °F 34% 29.88 in 10.0 mi West 10.4 mph - N/A   Clear
12:35 PM 78.8 °F 44.6 °F 30% 29.88 in 10.0 mi WNW 15.0 mph 24.2 mph N/A   Clear
12:53 PM 78.8 °F 44.6 °F 30% 29.87 in 10.0 mi WSW 16.1 mph 21.9 mph N/A   Clear
1:15 PM 78.8 °F 44.6 °F 30% 29.87 in 10.0 mi West 16.1 mph 23.0 mph N/A   Clear
1:35 PM 78.8 °F 44.6 °F 30% 29.87 in 10.0 mi West 12.7 mph 25.3 mph N/A   Clear
1:52 PM 80.6 °F 44.6 °F 28% 29.87 in 10.0 mi West 11.5 mph 18.4 mph N/A   Scattered Clouds
2:15 PM 80.6 °F 42.8 °F 26% 29.87 in 10.0 mi West 11.5 mph 25.3 mph N/A   Clear
2:35 PM 80.6 °F 44.6 °F 28% 29.87 in 10.0 mi WNW 16.1 mph 25.3 mph N/A   Scattered Clouds
2:52 PM 80.6 °F 44.6 °F 28% 29.87 in 10.0 mi West 18.4 mph 21.9 mph N/A   Scattered Clouds
3:15 PM 82.4 °F 46.4 °F 28% 29.86 in 10.0 mi West 17.3 mph 24.2 mph N/A   Scattered Clouds
3:35 PM 80.6 °F 46.4 °F 30% 29.86 in 10.0 mi West 8.1 mph 19.6 mph N/A   Clear
3:53 PM 80.6 °F 44.6 °F 28% 29.85 in 10.0 mi West 16.1 mph 23.0 mph N/A   Clear
4:15 PM 82.4 °F 44.6 °F 26% 29.84 in 10.0 mi West 12.7 mph 21.9 mph N/A   Scattered Clouds
4:35 PM 80.6 °F 44.6 °F 28% 29.84 in 10.0 mi West 12.7 mph 18.4 mph N/A   Scattered Clouds
4:53 PM 80.6 °F 44.6 °F 28% 29.83 in 10.0 mi WNW 13.8 mph 20.7 mph N/A   Scattered Clouds
5:15 PM 80.6 °F 42.8 °F 26% 29.83 in 10.0 mi West 11.5 mph 24.2 mph N/A   Scattered Clouds
5:35 PM 82.4 °F 44.6 °F 26% 29.82 in 10.0 mi West 17.3 mph 23.0 mph N/A   Scattered Clouds
5:53 PM 80.6 °F 42.8 °F 26% 29.82 in 10.0 mi West 15.0 mph 24.2 mph N/A   Clear
6:15 PM 80.6 °F 44.6 °F 28% 29.82 in 10.0 mi West 15.0 mph 26.5 mph N/A   Clear
6:34 PM 80.6 °F 42.8 °F 26% 29.82 in 10.0 mi West 13.8 mph 20.7 mph N/A   Clear
6:52 PM 80.6 °F 44.6 °F 28% 29.82 in 10.0 mi West 11.5 mph 18.4 mph N/A   Scattered Clouds
7:14 PM 78.8 °F 44.6 °F 30% 29.82 in 10.0 mi West 12.7 mph 17.3 mph N/A   Clear
7:35 PM 78.8 °F 44.6 °F 30% 29.82 in 10.0 mi WNW 8.1 mph - N/A   Scattered Clouds
7:53 PM 77.0 °F 46.4 °F 34% 29.82 in 10.0 mi WNW 8.1 mph - N/A   Scattered Clouds
8:15 PM 75.2 °F 46.4 °F 36% 29.83 in 10.0 mi WNW 11.5 mph - N/A   Scattered Clouds
8:35 PM 75.2 °F 46.4 °F 36% 29.83 in 10.0 mi WNW 9.2 mph - N/A   Scattered Clouds
8:53 PM 71.6 °F 46.4 °F 41% 29.84 in 10.0 mi NW 5.8 mph - N/A   Scattered Clouds
9:15 PM 71.6 °F 46.4 °F 41% 29.84 in 10.0 mi NW 12.7 mph - N/A   Scattered Clouds
9:34 PM 69.8 °F 48.2 °F 46% 29.85 in 10.0 mi NNW 11.5 mph - N/A   Scattered Clouds
9:53 PM 68.0 °F 48.2 °F 49% 29.86 in 10.0 mi NNW 9.2 mph - N/A   Scattered Clouds
10:15 PM 66.2 °F 50.0 °F 56% 29.87 in 10.0 mi NNW 8.1 mph - N/A   Scattered Clouds
10:35 PM 66.2 °F 50.0 °F 56% 29.88 in 10.0 mi NNW 4.6 mph - N/A   Scattered Clouds
10:53 PM 64.4 °F 50.0 °F 59% 29.89 in 10.0 mi Calm Calm - N/A   Scattered Clouds
11:15 PM 60.8 °F 50.0 °F 68% 29.89 in 10.0 mi Calm Calm - N/A   Clear
11:35 PM 60.8 °F 50.0 °F 68% 29.90 in 10.0 mi West 4.6 mph - N/A   Clear
11:52 PM 60.8 °F 50.0 °F 68% 29.90 in 10.0 mi West 3.5 mph - N/A   Scattered Clouds